Location: Krakow
(50.0830°N, 19.9170°E)
Time: 16:39:30
(UTC+01:00)

A-11 Canister half - All Passes

Search period start: 06 November 2024 00:00
Search period end: 16 November 2024 00:00
Orbit: 1525 x 1683 km, 47.3° (Epoch: 06 November)

Date Brightness Start Highest point End Pass type
(mag) Time Alt. Az. Time Alt. Az. Time Alt. Az.
06 Nov - 01:07:43 10° WSW 01:17:18 71° SSE 01:26:37 10° E visible
06 Nov - 03:12:33 10° W 03:22:02 72° SSW 03:31:16 10° ESE visible
06 Nov - 05:17:34 10° W 05:26:11 42° SW 05:34:41 10° SSE visible
06 Nov - 07:24:53 10° W 07:29:05 14° SW 07:33:15 10° SSW daylight
06 Nov - 20:44:49 10° SSE 20:48:29 13° SE 20:52:06 10° E night (unlit)
06 Nov - 22:42:34 10° SSW 22:51:23 40° SE 22:59:58 10° E night (unlit)
07 Nov - 00:45:56 10° WSW 00:55:32 70° SSE 01:04:52 10° E visible
07 Nov - 02:50:46 10° W 03:00:16 73° S 03:09:32 10° ESE visible
07 Nov - 04:55:46 10° W 05:04:28 44° SW 05:13:03 10° SE visible
07 Nov - 07:02:46 10° W 07:07:25 15° SW 07:12:04 10° SSW daylight
07 Nov - 20:23:50 10° SE 20:26:49 12° ESE 20:29:46 10° ESE night (unlit)
07 Nov - 22:20:54 10° SSW 22:29:40 38° SE 22:38:11 10° E night (unlit)
08 Nov - 00:24:08 10° WSW 00:33:46 69° SSE 00:43:06 10° E visible
08 Nov - 02:28:57 10° W 02:38:30 74° S 02:47:47 10° ESE visible
08 Nov - 04:33:57 10° W 04:42:45 45° SSW 04:51:23 10° SE visible
08 Nov - 06:40:41 10° W 06:45:45 16° SW 06:50:48 10° SSW daylight
08 Nov - 20:03:08 10° SE 20:05:09 11° ESE 20:07:09 10° ESE night (unlit)
08 Nov - 21:59:15 10° SSW 22:07:56 37° SE 22:16:23 10° E night (unlit)
09 Nov - 00:02:22 10° WSW 00:12:00 68° SSE 00:21:20 10° E visible
09 Nov - 02:07:09 10° W 02:16:44 74° S 02:26:03 10° ESE visible
09 Nov - 04:12:09 10° W 04:21:02 47° SSW 04:29:44 10° SE visible
09 Nov - 06:18:40 10° W 06:24:06 17° SW 06:29:30 10° SSW daylight
09 Nov - 21:37:37 10° SSW 21:46:13 36° SE 21:54:35 10° E night (unlit)
09 Nov - 23:40:35 10° WSW 23:50:14 67° SSE 23:59:35 10° E visible
10 Nov - 01:45:21 10° W 01:54:58 75° S 02:04:17 10° ESE visible
10 Nov - 03:50:21 10° W 03:59:18 49° SSW 04:08:04 10° SE visible
10 Nov - 05:56:41 10° W 06:02:26 18° SW 06:08:10 10° SSW visible
10 Nov - 21:15:58 10° SSW 21:24:29 34° SE 21:32:47 10° E night (unlit)
10 Nov - 23:18:48 10° WSW 23:28:28 66° SSE 23:37:49 10° E visible
11 Nov - 01:23:33 10° W 01:33:11 75° S 01:42:32 10° ESE visible
11 Nov - 03:28:33 10° W 03:37:35 50° SSW 03:46:24 10° SE visible
11 Nov - 05:34:43 10° W 05:40:46 19° SW 05:46:47 10° S visible
11 Nov - 20:54:21 10° SSW 21:02:46 33° SE 21:10:58 10° E night (unlit)
11 Nov - 22:57:01 10° WSW 23:06:42 65° SSE 23:16:04 10° E night (unlit)
12 Nov - 01:01:44 10° W 01:11:25 76° S 01:20:47 10° ESE visible
12 Nov - 03:06:44 10° W 03:15:51 52° SSW 03:24:44 10° SE visible
12 Nov - 05:12:46 10° W 05:19:06 21° SW 05:25:23 10° S visible
12 Nov - 20:32:43 10° SSW 20:41:03 32° SE 20:49:09 10° E visible
12 Nov - 22:35:15 10° WSW 22:44:55 64° SSE 22:54:18 10° E night (unlit)
13 Nov - 00:39:55 10° W 00:49:38 76° S 00:59:01 10° E visible
13 Nov - 02:44:56 10° W 02:54:06 53° SSW 03:03:03 10° SE visible
13 Nov - 04:50:50 10° W 04:57:26 22° SW 05:03:58 10° S visible
13 Nov - 20:11:08 10° SSW 20:19:20 30° SE 20:27:20 10° E visible
13 Nov - 22:13:29 10° SW 22:23:10 62° SSE 22:32:32 10° E night (unlit)
14 Nov - 00:18:07 10° W 00:27:51 77° S 00:37:16 10° E visible
14 Nov - 02:23:07 10° W 02:32:22 55° SSW 02:41:21 10° SE visible
14 Nov - 04:28:55 10° W 04:35:45 23° SW 04:42:31 10° S visible
14 Nov - 19:49:32 10° S 19:57:37 29° SE 20:05:30 10° E visible
14 Nov - 21:51:43 10° SW 22:01:24 61° SSE 22:10:46 10° E visible
14 Nov - 23:56:19 10° W 00:06:05 77° S 00:15:31 10° E visible
15 Nov - 02:01:20 10° W 02:10:38 57° SSW 02:19:40 10° SE visible
15 Nov - 04:07:00 10° W 04:14:05 24° SW 04:21:02 10° S visible
15 Nov - 19:27:58 10° S 19:35:54 28° SE 19:43:40 10° E visible
15 Nov - 21:29:57 10° SW 21:39:38 60° SSE 21:49:00 10° E visible
15 Nov - 23:34:30 10° W 23:44:18 77° S 23:53:46 10° E night (unlit)
